This is the latest recevied weather packets stored in our database for station/object N6SPP. If no packets are shown the sender has not sent any weather packets the latest 1 day(s).
| Time | Temp. | Humidity | Pressure | Rain* | Wind** | Luminosity | Snow |
|---|---|---|---|---|---|---|---|
| 1778055015 | 13.33° C | 81% | 1020.7 hPa | 0 mm | - | 0 W/m² | - |
| 1778054107 | 13.33° C | 81% | 1020.6 hPa | 0 mm | - | 0 W/m² | - |
| 1778053198 | 12.78° C | 82% | 1020.3 hPa | 0 mm | - | 0 W/m² | - |
| 1778051685 | 12.78° C | 82% | 1020.5 hPa | 0 mm | - | 0 W/m² | - |
| 1778051382 | 12.78° C | 83% | 1020.5 hPa | 0 mm | - | 0 W/m² | - |
| 1778051079 | 12.78° C | 82% | 1020.3 hPa | 0 mm | - | 0 W/m² | - |
| 1778050474 | 12.78° C | 83% | 1020.6 hPa | 0 mm | - | 0 W/m² | - |
| 1778050170 | 12.78° C | 82% | 1020.2 hPa | 0 mm | - | 0 W/m² | - |
| 1778049563 | 13.33° C | 82% | 1020.2 hPa | 0 mm | - | 0 W/m² | - |
| 1778048657 | 13.33° C | 82% | 1020.3 hPa | 0 mm | - | 0 W/m² | - |
| 1778048049 | 13.33° C | 81% | 1020 hPa | 0 mm | - | 0 W/m² | - |
| 1778047747 | 13.33° C | 81% | 1020.1 hPa | 0 mm | - | 0 W/m² | - |
| 1778047445 | 13.33° C | 80% | 1019.9 hPa | 0 mm | - | 0 W/m² | - |
| 1778046535 | 13.33° C | 79% | 1019.8 hPa | 0 mm | - | 0 W/m² | - |
| 1778046232 | 13.89° C | 79% | 1019.9 hPa | 0 mm | - | 0 W/m² | - |
| 1778045627 | 13.33° C | 79% | 1019.6 hPa | 0 mm | - | 0 W/m² | - |
| 1778045325 | 13.33° C | 79% | 1019.7 hPa | 0 mm | - | 0 W/m² | - |
| 1778044417 | 13.89° C | 79% | 1019.4 hPa | 0 mm | - | 0 W/m² | - |
| 1778044114 | 13.89° C | 79% | 1019.3 hPa | 0 mm | - | 0 W/m² | - |
| 1778043205 | 13.89° C | 78% | 1019.2 hPa | 0 mm | - | 0 W/m² | - |
| 1778042902 | 13.89° C | 78% | 1019.3 hPa | 0 mm | - | 0 W/m² | - |
| 1778042600 | 13.89° C | 79% | 1019.4 hPa | 0 mm | - | 0 W/m² | - |
| 1778041994 | 13.89° C | 79% | 1019.2 hPa | 0 mm | - | 0 W/m² | - |
| 1778041692 | 13.89° C | 79% | 1019.1 hPa | 0 mm | - | 0 W/m² | - |
| 1778040786 | 14.44° C | 79% | 1019 hPa | 0 mm | - | 0 W/m² | - |
* Rain latest hour (hover to see other rain measurements)
** Current wind speed in m/s (hover to see current wind gust speed)